[[[{"header":{"parameterUnit":"kt","parameterCategory":2,"dx":1,"dy":1,"la1":30.253999710083008,"la2":30.299108505249023,"lo1":-89.0895004272461,"lo2":-89.04439544677734,"nx":28,"ny":28,"refTime":"2022-09-28T21:00:00:Z","depth":0,"parameterNumber":1,"parameterNumberName":"U-component_of_WINDS"},"data":[-5.2656,-5.2824,-5.2809,-5.2993,-5.301,-5.3133,-5.3171,-5.3219,-5.3253,-5.3395,-5.3473,-5.3473,-5.3499,-5.3587,-5.367,-5.3668,-5.3705,-5.3775,-5.376,-5.3463,-5.3421,-5.3381,-5.3342,-5.3782,-5.3783,-5.4072,-5.4074,-5.4076,-5.2437,-5.2456,-5.2549,-5.263,-5.2709,-5.2632,-5.2688,-5.2759,-5.287,-5.2913,-5.2989,-5.3112,-5.3207,-5.3209,-5.3297,-5.3372,-5.3341,-5.3397,-5.3393,-5.3398,-5.3079,-5.3038,-5.3421,-5.3421,-5.3421,-5.3421,-5.3421,-5.3421,-5.2033,-5.2135,-5.2175,-5.2276,-5.2311,-5.2365,-5.2458,-5.2457,-5.2546,-5.2638,-5.2601,-5.2725,-5.2764,-5.2862,-5.289,-5.2985,-5.292,-5.2977,-5.2991,-5.3007,-5.3027,-5.2614,-5.2999,-5.2997,-5.2996,-5.2995,-5.2995,0,-5.1734,-5.1715,-5.1804,-5.1888,-5.196,-5.2024,-5.2079,-5.2136,-5.2088,-5.2164,-5.2272,-5.2332,-5.2448,-5.2547,-5.2625,-5.2643,-5.2572,-5.2562,-5.2601,-5.2624,-5.2632,-5.2632,-5.2114,-5.2552,-5.2548,-5.2545,-5.2543,-5.2542,-5.1328,-5.1448,-5.1482,-5.1547,-5.1573,-5.1677,-5.1736,-5.1685,-5.1749,-5.1808,-5.1899,-5.1997,-5.2074,-5.2249,-5.2245,-5.2331,-5.2298,-5.2468,-5.2311,-5.2326,-5.2303,-5.2298,-5.231,-5.2501,-5.2506,-5.251,-5.2514,0,-5.1101,-5.1077,-5.1257,-5.1279,-5.1288,-5.1416,-5.1434,-5.1532,-5.1519,-5.1652,-5.168,-5.1662,-5.1768,-5.1737,-5.1852,-5.1832,-5.2039,-5.2003,-5.2025,-5.2017,-5.2167,-5.2155,-5.2656,-5.2719,-5.2259,-5.2264,-5.2267,0,-5.0746,-5.0905,-5.0859,-5.0966,-5.1139,-5.1085,-5.1258,-5.1265,-5.1299,-5.1403,-5.1316,-5.1416,-5.136,-5.1454,-5.1426,-5.1589,-5.161,-5.1605,-5.1597,-5.1615,-5.1617,-5.1651,-5.1631,-5.1569,-5.1566,-5.1564,-5.1562,0,-5.0397,-5.0557,-5.0729,-5.0762,-5.0802,-5.0883,-5.0904,-5.0941,-5.0999,-5.1068,-5.1105,-5.1189,-5.1236,-5.1302,-5.1265,-5.116,-5.1463,-5.1311,-5.1459,-5.146,-5.1531,-5.1528,-5.1976,-5.1559,-5.1558,-5.1557,-5.1557,0,-5.0108,-5.0181,-5.0433,-5.0464,-5.0509,-5.0621,-5.0702,-5.0791,-5.0836,-5.0826,-5.088,-5.082,-5.0959,-5.0811,-5.1002,-5.0876,-5.0927,-5.0934,-5.0944,-5.0958,-5.0795,-5.1055,-5.1483,-5.1528,-5.0966,-5.0961,-5.0956,0,-4.9714,-4.9963,-4.9919,-5.0159,-5.027,-5.0167,-5.029,-5.0333,-5.033,-5.0422,-5.0416,-5.0522,-5.0405,-5.0434,-5.0532,-5.0532,-5.0695,-5.0508,-5.0642,-5.0647,-5.0636,-5.1028,-5.1102,-5.1392,-5.0893,-5.09,-5.0904,0,-4.9408,-4.9456,-4.9503,-4.9538,-4.9588,-4.968,-4.9822,-4.9915,-4.9979,-5.0037,-5.0155,-5.03,-5.0218,-5.0268,-5.0228,-5.0332,-5.0582,-5.023,-5.0231,-5.0297,-5.0858,-5.0927,-5.0976,-5.0532,-5.054,-5.0546,-5.0854,0,-4.898,-4.9101,-4.9224,-4.9307,-4.9372,-4.9521,-4.9491,-4.9563,-4.9518,-4.9512,-4.9684,-4.9712,-4.9807,-4.9853,-4.9811,-5.0059,-5.0013,-4.9925,-4.9782,-5.0038,-5.0139,-5.018,-4.9634,-4.9629,-4.9626,-4.9622,0,0,-4.8612,-4.8785,-4.8733,-4.887,-4.8923,-4.8815,-4.8977,-4.9015,-4.9097,-4.9135,-4.9054,-4.9266,-4.9294,-4.9506,-4.9583,-4.9621,-4.9663,-4.9575,-4.9916,-4.9949,-4.9979,-5.0088,-5.0131,-4.9616,-4.9614,-4.9613,-4.9612,0,-4.8451,-4.8481,-4.8643,-4.868,-4.8734,-4.872,-4.8759,-4.8794,-4.8797,-4.8966,-4.8875,-4.8974,-4.9146,-4.9187,-4.923,-4.9547,-4.9475,-4.9578,-4.976,-4.9879,-4.9917,-4.9951,-5.0065,-5.0107,-4.9603,-4.9603,-4.9604,0,-4.8145,-4.8171,-4.8245,-4.8361,-4.8396,-4.8512,-4.8353,-4.8483,-4.8568,-4.8445,-4.8614,-4.8626,-4.8678,-4.8882,-4.8973,-4.8902,-4.9305,-4.9172,-4.9195,-4.9205,-4.9319,-4.9365,-4.9405,-4.8872,-4.887,-4.8867,0,0,-4.801,-4.8122,-4.8135,-4.8324,-4.8352,-4.8334,-4.8393,-4.8355,-4.8405,-4.8425,-4.844,-4.8491,-4.8589,-4.8656,-4.8748,-4.8976,-4.8983,-4.9084,-4.9118,-4.9146,-4.9172,-4.9294,-4.9339,-4.8858,-4.8858,-4.8858,0,0,-4.7945,-4.7968,-4.7915,-4.8131,-4.8182,-4.8207,-4.8323,-4.8259,-4.8338,-4.8318,-4.826,-4.8272,-4.8462,-4.8478,-4.8359,-4.8696,-4.8554,-4.8582,-4.868,-4.8723,-4.8757,-4.8751,-4.8202,0,0,0,0,0,-4.7766,-4.7965,-4.7916,-4.7948,-4.8095,-4.8233,-4.8252,-4.8209,-4.8109,-4.8202,-4.8204,-4.8122,-4.8401,-4.8295,-4.8327,-4.8461,-4.8741,-4.8762,-4.8781,-4.8961,-4.9006,-4.9045,0,0,0,0,0,0,-4.7778,-4.7818,-4.7911,-4.7946,-4.7978,-4.8226,-4.8048,-4.8042,-4.8098,-4.808,-4.8124,-4.8123,-4.8089,-4.8276,-4.8305,-4.8434,-4.8192,-4.8749,-4.8767,-4.8783,-4.8976,-4.9014,-4.9045,0,0,0,0,0,-4.7788,-4.7819,-4.8065,-4.7942,-4.7971,-4.7961,-4.804,-4.8033,-4.8077,-4.8081,-4.8077,-4.804,-4.8094,-4.8116,-4.8293,-4.8421,-4.8171,-4.8182,-4.8761,-4.8775,-4.8787,-4.8995,0,0,0,0,0,0,-4.7795,-4.7814,-4.807,-4.8077,-4.7865,-4.7946,-4.7958,-4.8027,-4.8072,-4.8071,-4.7992,-4.7978,-4.81,-4.8116,-4.8133,-4.842,-4.8154,-4.8165,-4.8173,-4.8771,-4.8782,-4.8792,0,0,0,0,0,0,-4.7796,-4.7821,-4.8073,-4.7978,-4.7973,-4.7933,-4.7944,-4.8088,-4.8074,-4.7981,-4.797,-4.7985,-4.8074,-4.8117,-4.813,-4.8356,-4.8141,-4.8152,-4.816,-4.8164,-4.878,-4.8789,0,0,0,0,0,0,-4.7806,-4.7826,-4.7975,-4.7972,-4.7968,-4.8042,-4.8059,-4.8212,-4.7993,-4.798,-4.7972,-4.7962,-4.8077,-4.8089,-4.8128,-4.835,-4.8355,-4.8141,-4.8149,-4.8154,-4.8158,0,0,0,0,0,0,0,-4.7813,-4.7686,-4.8029,-4.7968,-4.7964,-4.8141,-4.8143,-4.8145,-4.7991,-4.7982,-4.7974,-4.7966,-4.8079,-4.8091,-4.8103,-4.8345,0,0,-4.814,-4.8146,0,0,0,0,0,0,0,0,-4.7676,-4.7684,-4.8029,-4.8031,-4.8032,-4.8141,-4.8143,-4.8144,-4.7989,-4.7982,-4.7976,-4.7969,-4.8082,-4.8092,-4.8102,0,0,0,0,0,0,0,0,0,0,0,0,0,0,0,-4.8029,-4.8031,0,-4.8141,-4.8143,-4.8144,-4.7988,-4.7983,-4.7977,-4.7972,-4.8085,-4.8093,-4.8101,0,0,0,0,0,0,0,0,0,0,0,0,0,0,0,0,0,0,0,0,0,0,0,0,0,0,0,0,0,0,0,0,0,0,0,0,0,0,0,0,0,0,0,0,0,0,0,0,0,0,0,0,0,0,0,0,0,0,0,0,0,0,0,0,0,0,0,0,0]}],[{"header":{"parameterUnit":"kt","parameterCategory":2,"dx":1,"dy":1,"la1":30.253999710083008,"la2":30.299108505249023,"lo1":-89.0895004272461,"lo2":-89.04439544677734,"nx":28,"ny":28,"refTime":"2022-09-28T21:00:00:Z","depth":0,"parameterNumber":2,"parameterNumberName":"V-component_of_WINDS"},"data":[-16.8942,-16.9223,-16.9193,-16.9497,-16.952,-16.9721,-16.9782,-16.9856,-16.9906,-17.0136,-17.0262,-17.0254,-17.0286,-17.0424,-17.0555,-17.0547,-17.0605,-17.0728,-17.0697,-17.018,-17.0106,-17.0035,-16.9968,-17.0741,-17.0742,-17.1237,-17.1242,-17.1245,-16.8566,-16.8594,-16.8746,-16.8873,-16.9001,-16.8864,-16.8951,-16.9066,-16.9247,-16.931,-16.9432,-16.9631,-16.9781,-16.9769,-16.9906,-17.0031,-16.9972,-17.0071,-17.006,-17.0067,-16.9513,-16.9443,-17.0116,-17.0116,-17.0116,-17.0116,-17.0116,-17.0116,-16.7872,-16.8042,-16.81,-16.8265,-16.8319,-16.8402,-16.8556,-16.8544,-16.8689,-16.8833,-16.8762,-16.8964,-16.9016,-16.9162,-16.9201,-16.9354,-16.9237,-16.9333,-16.9357,-16.9382,-16.9417,-16.8707,-16.9375,-16.9373,-16.9371,-16.9369,-16.9368,0,-16.7353,-16.7317,-16.746,-16.7596,-16.7712,-16.7812,-16.7897,-16.7991,-16.7892,-16.8016,-16.819,-16.8283,-16.8466,-16.8622,-16.8741,-16.876,-16.8625,-16.8607,-16.8672,-16.8711,-16.8731,-16.8723,-16.7822,-16.8587,-16.858,-16.8575,-16.8572,-16.8569,-16.6651,-16.6853,-16.6897,-16.7002,-16.704,-16.7211,-16.7304,-16.7202,-16.7305,-16.7391,-16.7542,-16.7699,-16.7818,-16.8098,-16.8074,-16.8209,-16.8144,-16.844,-16.8163,-16.8192,-16.8148,-16.8137,-16.8156,-16.8496,-16.8505,-16.8513,-16.8519,0,-16.6258,-16.6204,-16.6505,-16.6526,-16.6538,-16.6753,-16.6768,-16.693,-16.6898,-16.7117,-16.7161,-16.711,-16.728,-16.7208,-16.7386,-16.7343,-16.7689,-16.7622,-16.767,-16.7653,-16.7911,-16.7888,-16.8761,-16.8869,-16.8067,-16.8074,-16.8081,0,-16.5636,-16.5904,-16.5807,-16.5985,-16.6278,-16.6168,-16.646,-16.6461,-16.6505,-16.6676,-16.6512,-16.6675,-16.6556,-16.6708,-16.6644,-16.6914,-16.6947,-16.6929,-16.6909,-16.6945,-16.6947,-16.6995,-16.6958,-16.6856,-16.6851,-16.6847,-16.6844,0,-16.5027,-16.5288,-16.5576,-16.5626,-16.5674,-16.5811,-16.5836,-16.5884,-16.5976,-16.6081,-16.6138,-16.6269,-16.634,-16.6442,-16.636,-16.6174,-16.6687,-16.6415,-16.6669,-16.6672,-16.6786,-16.6781,-16.7571,-16.6838,-16.6837,-16.6836,-16.6834,0,-16.4516,-16.4632,-16.5058,-16.5092,-16.5165,-16.5353,-16.5476,-16.5621,-16.5682,-16.5655,-16.5737,-16.5618,-16.5848,-16.5583,-16.5898,-16.568,-16.5758,-16.5762,-16.5779,-16.5795,-16.5501,-16.5957,-16.6717,-16.6794,-16.5809,-16.5801,-16.5793,0,-16.3834,-16.4249,-16.4158,-16.4564,-16.4745,-16.455,-16.4756,-16.4816,-16.4797,-16.4944,-16.4919,-16.5088,-16.4875,-16.4917,-16.5083,-16.5064,-16.5347,-16.5023,-16.5232,-16.5241,-16.5223,-16.5922,-16.6054,-16.6559,-16.5683,-16.5695,-16.5703,0,-16.3297,-16.3356,-16.3435,-16.3487,-16.3552,-16.3701,-16.3939,-16.4083,-16.4186,-16.4271,-16.4465,-16.4698,-16.4547,-16.4619,-16.4534,-16.471,-16.5152,-16.4523,-16.4523,-16.4639,-16.5621,-16.5745,-16.5831,-16.5055,-16.5069,-16.5079,-16.5615,0,-16.2538,-16.2738,-16.2948,-16.307,-16.3174,-16.3424,-16.335,-16.3468,-16.3378,-16.3351,-16.3635,-16.3663,-16.3806,-16.3883,-16.3795,-16.4222,-16.4139,-16.3975,-16.3712,-16.4171,-16.4346,-16.4417,-16.3458,-16.3449,-16.3442,-16.3437,0,0,-16.1898,-16.2183,-16.2075,-16.2303,-16.2385,-16.2177,-16.245,-16.2504,-16.2619,-16.2678,-16.2531,-16.2866,-16.2895,-16.3247,-16.3384,-16.3442,-16.351,-16.3353,-16.3953,-16.4011,-16.4064,-16.4253,-16.4328,-16.3424,-16.3422,-16.3419,-16.3417,0,-16.1605,-16.1647,-16.192,-16.1972,-16.2045,-16.2004,-16.207,-16.2105,-16.21,-16.2378,-16.22,-16.236,-16.2631,-16.2685,-16.2748,-16.3309,-16.3164,-16.3358,-16.3686,-16.3886,-16.3953,-16.4012,-16.4211,-16.4285,-16.34,-16.3401,-16.3402,0,-16.1064,-16.1092,-16.1216,-16.1393,-16.1439,-16.1629,-16.1335,-16.1549,-16.1688,-16.1445,-16.1724,-16.173,-16.1795,-16.2138,-16.2288,-16.2158,-16.2853,-16.2619,-16.2661,-16.2676,-16.2865,-16.2946,-16.3018,-16.207,-16.2065,-16.2062,0,0,-16.082,-16.1006,-16.1001,-16.1325,-16.1366,-16.1309,-16.1402,-16.1321,-16.1387,-16.1415,-16.1418,-16.1486,-16.164,-16.1745,-16.1887,-16.2274,-16.2278,-16.2459,-16.2522,-16.2573,-16.2616,-16.282,-16.29,-16.2045,-16.2045,-16.2044,0,0,-16.0702,-16.0712,-16.061,-16.0976,-16.1048,-16.1062,-16.1261,-16.1134,-16.1255,-16.1217,-16.1088,-16.11,-16.1418,-16.143,-16.1222,-16.1791,-16.1532,-16.158,-16.1772,-16.185,-16.1912,-16.1902,-16.0922,0,0,0,0,0,-16.0366,-16.071,-16.0618,-16.0669,-16.089,-16.1114,-16.1141,-16.1044,-16.0862,-16.1022,-16.1004,-16.0843,-16.1291,-16.1103,-16.1153,-16.1387,-16.1836,-16.1873,-16.1908,-16.2247,-16.2329,-16.2399,0,0,0,0,0,0,-16.0384,-16.0447,-16.0609,-16.064,-16.0688,-16.11,-16.0772,-16.0755,-16.0843,-16.0808,-16.0852,-16.0844,-16.0763,-16.1071,-16.1117,-16.1341,-16.0906,-16.185,-16.1882,-16.191,-16.2275,-16.2342,-16.24,0,0,0,0,0,-16.0399,-16.0449,-16.0831,-16.0634,-16.0676,-16.063,-16.0758,-16.0741,-16.0807,-16.0781,-16.0768,-16.0726,-16.0772,-16.0804,-16.1098,-16.1323,-16.0873,-16.0891,-16.1871,-16.1896,-16.1918,-16.2308,0,0,0,0,0,0,-16.041,-16.0433,-16.0837,-16.0846,-16.0497,-16.0605,-16.0618,-16.073,-16.0771,-16.0763,-16.0647,-16.062,-16.0783,-16.0806,-16.0832,-16.1322,-16.0846,-16.0864,-16.0875,-16.189,-16.1909,-16.1927,0,0,0,0,0,0,-16.0406,-16.0443,-16.0841,-16.0674,-16.0662,-16.0582,-16.0595,-16.0828,-16.0774,-16.0634,-16.0612,-16.0634,-16.0743,-16.0809,-16.0828,-16.1197,-16.0826,-16.0843,-16.0855,-16.0862,-16.1906,-16.1921,0,0,0,0,0,0,-16.0419,-16.0451,-16.067,-16.0663,-16.0652,-16.0745,-16.0786,-16.1017,-16.0635,-16.0635,-16.0598,-16.058,-16.0751,-16.0767,-16.0827,-16.1189,-16.1195,-16.0826,-16.0838,-16.0846,-16.0852,0,0,0,0,0,0,0,-16.043,-16.0243,-16.0784,-16.0653,-16.0643,-16.093,-16.0932,-16.0935,-16.0631,-16.0616,-16.0602,-16.0588,-16.0727,-16.0746,-16.0765,-16.1183,0,0,-16.0824,-16.0833,0,0,0,0,0,0,0,0,-16.0227,-16.0239,-16.0784,-16.0786,-16.0788,-16.093,-16.0932,-16.0934,-16.0629,-16.0617,-16.0605,-16.0593,-16.0732,-16.0747,-16.0763,0,0,0,0,0,0,0,0,0,0,0,0,0,0,0,-16.0784,-16.0786,0,-16.093,-16.0932,-16.0934,-16.0627,-16.0617,-16.0607,-16.0598,-16.0736,-16.0749,-16.0762,0,0,0,0,0,0,0,0,0,0,0,0,0,0,0,0,0,0,0,0,0,0,0,0,0,0,0,0,0,0,0,0,0,0,0,0,0,0,0,0,0,0,0,0,0,0,0,0,0,0,0,0,0,0,0,0,0,0,0,0,0,0,0,0,0,0,0,0,0]}]]]